FENGYUN 1C DEB, 30527

Orbit data source: Space-Track

FENGYUN 1C DEB, 30527 is space debris in SSO originally from a launch on Mon, 10 May 1999 UTC launched from the Taiyaun Space Center, China (TSC). Fengyun 1C debris stems from the Chinese weather satellite Fengyun-1C, which was intentionally destroyed by a Chinese anti-satellite missile in 2007. This event dramatically increased the amount of space debris, with thousands of trackable fragments posing hazards to satellites and human spaceflight. The Fengyun 1C debris cloud has become a focal point in discussions about space sustainability and the need for international regulations to prevent the creation of new debris.

Loading next visibility...
Identifier
30527, 1999-025AJR
Orbit
SSO
Country
Flag of CNCN / PRC
Related business
Manufacturer
Unknown
Mission
Spacecraft
Bus & Motor
Unknown
Mass
Unknown
Launch date (UTC)
1999-05-10 (26 years ago)
Launch vehicle
Unknown
Launch site
Taiyaun Space Center, China (TSC)
Object type
Payload
Rocket body
Debris
Shape & HBR
Unknown shape, 0.1 m
Radar Cross Section
Small (<0.1 m²)

Expand to show TLE details & history
Last TLE update: 17 hours ago

TLE from 17 hours ago
0 FENGYUN 1C DEB
1 30527U 99025AJR 25302.90597208  .00001190  00000-0  16356-2 0  9998
2 30527 100.0670 347.1472 0410484 330.8332 210.0863 13.30885124907735
Epoch: 2025-10-29T21:44Z
TLE epoch observation values (Epoch: 2025-10-29T21:44:35.987Z)
Latitude
1.21556°
Longitude
162.73964°
Altitude
1,416.246 km
Speed
7.023 km/s
True Right ascension
11h 09m 26s
True Declination
1° 12' 32"
Sunlit
Object was in daylight at epoch
Visualization orbit readout
Latitude
Unknown
Longitude
Unknown
Altitude
Unknown
Speed
Unknown
Apparent Right ascension
Unknown
Apparent Declination
Unknown
Sunlit
N/A
Visualization observer readout
Local Sidereal Time
10:23:15
Azimuth
Unknown
Elevation
Unknown
Doppler factor
Unknown
Orbital elements
Apogee altitude
1,449.405 km
Perigee altitude
832.127 km
Semi-major axis
7,518.903 km
Eccentricity
0.04105
Inclination
100.067°
RAAN
347.1472°
Arg. of periapsis
330.8332°
True anomaly
207.82925°
Mean anomaly
210.0863°
Eccentric anomaly
208.94795°
Mean motion
3.32898 °/min
Orbital period
108.14 mins
BSTAR
0.0016356
Loading maneuver chart data...
Computing Atmospheric mass density...

Documentation

Showing up to 5 results
|